Location: Ammerl�gen
(47.2167°N, 9.6000°E)
Time: 07:24:47
(UTC+00:00)

Iridium 4 Rocket - Pass Details

Date: 05 August 2021
Orbit: 584 x 904 km, 86.9° (Epoch: 18 September)

Event Time Altitude Azimuth Distance (km) Brightness Sun altitude
Rises 01:27:23 0° 351° (N) 3,474 7.7 -20.4°
Reaches altitude 10° 01:29:53 10° 345° (NNW) 2,558 6.8 -20.2°
Maximum altitude 01:35:23 44° 276° (W) 1,230 4.3 -19.7°
Enters shadow 01:37:20 33° 232° (SW) 1,466 4.4 -19.5°
